Weather History for Montrose, CO

Change the Weather History Date:

Sunday, December 23, 2012

  Actual Average Record
Temperature  
Mean Temperature 24 °F 25 °F  
Max Temperature 33 °F 36 °F 53 °F (2005)
Min Temperature 14 °F 14 °F -9 °F (1998)
Degree Days  
Heating Degree Days 41 40  
Month to date heating degree days 766 867  
Since 1 July heating degree days 1908 2288  
Cooling Degree Days 0 0  
Month to date cooling degree days 0 0  
Year to date cooling degree days 906 643  
Moisture  
Dew Point 15 °F    
Average Humidity 69    
Maximum Humidity 88    
Minimum Humidity 49    
Precipitation  
Precipitation 0.00 in 0.02 in 0.12 in (2008)
Month to date precipitation 0.23 0.49  
Year to date precipitation 5.71 11.14  
Sea Level Pressure  
Sea Level Pressure 30.17 in    
Wind  
Wind Speed 3 mph (ENE)    
Max Wind Speed 10 mph    
Max Gust Speed 13 mph    
Visibility 9 miles    
Events      
T = Trace of Precipitation, MM = Missing Value Source: NWS Daily Summary

Daily Weather History Graph

Daily Weather History Graph

Search for Another Location

Airport:

Trip Planner

Search our weather history database for the weather conditions in past years. The results will help you decide how hot, cold, wet, or windy it might be!

Date:

Astronomy

Dec. 23, 2012 Rise Set
Actual Time 7:26 AM MST 4:55 PM MST
Civil Twilight 6:56 AM MST 5:25 PM MST
Nautical Twilight 6:23 AM MST 5:58 PM MST
Astronomical Twilight 5:51 AM MST 6:30 PM MST
Moon 1:46 PM MST (12/23) 3:13 AM MST (12/23)
Length of Visible Light 10h 28m
Length of Day
9h 28m
Waxing Gibbous, 82% of the Moon is Illuminated
Dec 23
Waxing Gibbous
Dec 28
Full
Jan 4
Last Quarter
Jan 11
New
Jan 18
First Quarter

Hourly Weather History & Observations

Time (MST) Temp. Windchill Dew Point Humidity Pressure Visibility Wind Dir Wind Speed Gust Speed Precip Events Conditions
12:53 AM 18.0 °F 12.7 °F 10.9 °F 74% 30.18 in 10.0 mi Variable 3.5 mph - N/A   Clear
1:53 AM 16.0 °F - 12.0 °F 84% 30.17 in 10.0 mi Calm Calm - N/A   Clear
2:53 AM 16.0 °F 10.4 °F 12.0 °F 84% 30.17 in 10.0 mi NW 3.5 mph - N/A   Clear
3:53 AM 15.1 °F 9.4 °F 10.9 °F 84% 30.17 in 9.0 mi NNE 3.5 mph - N/A   Clear
4:53 AM 15.1 °F - 10.9 °F 84% 30.19 in 9.0 mi Calm Calm - N/A   Partly Cloudy
5:53 AM 15.1 °F 9.4 °F 10.9 °F 84% 30.22 in 8.0 mi NNW 3.5 mph - N/A   Clear
6:53 AM 16.0 °F 10.4 °F 10.9 °F 81% 30.23 in 10.0 mi ESE 3.5 mph - N/A   Overcast
7:53 AM 17.1 °F 11.7 °F 12.0 °F 81% 30.25 in 7.0 mi ESE 3.5 mph - N/A   Overcast
8:53 AM 19.0 °F 13.9 °F 12.9 °F 77% 30.29 in 7.0 mi ESE 3.5 mph - N/A   Overcast
9:53 AM 21.9 °F 11.0 °F 14.0 °F 72% 30.28 in 10.0 mi SSE 10.4 mph - N/A   Overcast
10:53 AM 27.0 °F 23.0 °F 15.1 °F 61% 30.25 in 10.0 mi ENE 3.5 mph - N/A   Clear
11:53 AM 30.0 °F 26.5 °F 14.0 °F 51% 30.23 in 10.0 mi NNW 3.5 mph - N/A   Partly Cloudy
12:53 PM 32.0 °F - 17.1 °F 54% 30.18 in 10.0 mi Calm Calm - N/A   Clear
1:53 PM 32.0 °F 28.7 °F 18.0 °F 56% 30.17 in 10.0 mi North 3.5 mph - N/A   Clear
2:53 PM 33.1 °F - 19.0 °F 56% 30.13 in 10.0 mi Calm Calm - N/A   Clear
3:53 PM 30.9 °F 27.5 °F 18.0 °F 59% 30.13 in 10.0 mi NE 3.5 mph - N/A   Clear
4:53 PM 30.0 °F - 18.0 °F 61% 30.11 in 10.0 mi Calm Calm - N/A   Clear
5:53 PM 24.1 °F - 17.1 °F 75% 30.14 in 8.0 mi Calm Calm - N/A   Clear
6:53 PM 23.0 °F 14.7 °F 18.0 °F 81% 30.15 in 7.0 mi SSE 6.9 mph - N/A   Clear
7:53 PM 25.0 °F 17.1 °F 19.0 °F 78% 30.14 in 8.0 mi SE 6.9 mph - N/A   Partly Cloudy
8:53 PM 26.1 °F - 19.9 °F 78% 30.13 in 9.0 mi Calm Calm - N/A   Scattered Clouds
9:53 PM 25.0 °F 19.3 °F 19.9 °F 81% 30.12 in 8.0 mi WNW 4.6 mph - N/A   Clear
10:53 PM 24.1 °F - 19.9 °F 84% 30.09 in 7.0 mi Calm Calm - N/A   Mostly Cloudy
11:53 PM 24.1 °F 18.2 °F 19.9 °F 84% 30.02 in 6.0 mi SE 4.6 mph - N/A   Overcast